Showing default

CUAVA-2, 60527

Orbit data source: Space-Track

CUAVA-2, 60527 is an Australian payload satellite in SSO that was launched on Fri, 16 Aug 2024 UTC via an FALCON 9 launch vehicle from the Air Force Western Test Range (AFWTR). Payload-class satellites include a variety of spacecraft equipped with specific instruments for various scientific and technological missions. These include communications satellites like Starlink; space stations such as the ISS; scientific satellites like the Hubble; Earth observation satellites from companies like Planet Labs, Umbra, and HawkEye 360; GPS; miniature CubeSats for education and research; and military/defense satellites.

Loading next visibility...
Identifier
60527, 2024-149BM
Orbit
SSO
Country
Flag of AUAU / AUS
Related business
Manufacturer
USYD/UNSW
Mission
Operational Amateur Technology
Bus & Motor
CUBESAT 6U, Unknown motor
Mass
10 kg wet, 10 kg dry
Launch date (UTC)
2024-08-16 (1 year ago)
Launch vehicle
FALCON 9
Launch site
Air Force Western Test Range (AFWTR)
Object type
Payload
Rocket body
Debris
Shape & HBR
Box, 0.1 m
Radar Cross Section
0.080 m², Medium (>0.1 m² and < 1m²)

Expand to show TLE details & history
Last TLE update: 16 hours ago

TLE from 16 hours ago
0 CUAVA-2
1 60527U 24149BM  26034.46386360  .00014714  00000-0  46933-3 0  9996
2 60527  97.3836 116.0442 0008147  57.8965 302.3067 15.32581421 81660
Epoch: 2026-02-03T11:07Z
TLE epoch observation values (Epoch: 2026-02-03T11:07:57.815Z)
Latitude
0.00002°
Longitude
175.40887°
Altitude
468.243 km
Speed
7.634 km/s
True Right ascension
07h 44m 10s
True Declination
0° 00' 00"
Sunlit
Object was in full shadow at epoch
Visualization orbit readout
Latitude
Unknown
Longitude
Unknown
Altitude
Unknown
Speed
Unknown
Apparent Right ascension
Unknown
Apparent Declination
Unknown
Sunlit
N/A
Visualization observer readout
Local Sidereal Time
05:03:38
Azimuth
Unknown
Elevation
Unknown
Doppler factor
Unknown
Orbital elements
Apogee altitude
470.637 km
Perigee altitude
459.487 km
Semi-major axis
6,843.199 km
Eccentricity
0.00081
Inclination
97.3836°
RAAN
116.0442°
Arg. of periapsis
57.8965°
True anomaly
302.22775°
Mean anomaly
302.3067°
Eccentric anomaly
302.26723°
Mean motion
3.83402 °/min
Orbital period
93.9 mins
BSTAR
0.00046933
Loading maneuver chart data...
Computing Atmospheric mass density...
Loading historical data...
Loading historical data...
Loading historical data...
Loading historical data...
Loading historical data...
Loading historical data...
Loading historical data...

Documentation

Showing up to 5 results
|